Regional Weather Roundup
Issued by NWS

Home | Current Version | Previous Version | Graphics & Text | Print | Product List | Glossary On
Versions: 1 2 3 4 5 6 7 8 9 10 11 12 13 14 15 16 17 18 19 20 21 22 23 24 25 26 27 28
000
ASUS45 KBOU 142210
RWRCO

WEATHER ROUNDUP FOR COLORADO
NATIONAL WEATHER SERVICE DENVER/BOULDER CO
300 PM MST THU DEC 14 2017

NOTE: "FAIR" INDICATES FEW OR NO CLOUDS BELOW 12000 FEET WITH NO
SIGNIFICANT WEATHER AND/OR OBSTRUCTIONS TO VISIBILITY.

COZ001>005-013-030-031-142300-
...NORTHWEST COLORADO...

CITY           SKY/WX    TMP DP  RH WIND       PRES   REMARKS
CRAIG          CLOUDY    34  16  47 CALM      30.32F
HAYDEN         FAIR      31  20  63 W9        30.32  WCI  23
MEEKER         FAIR      35  18  49 N10       30.31S WCI  27
RABBIT EARS PA LGT SNOW  14  12  92 W10G18    30.22R WCI   1
STEAMBOAT SPGS FAIR      32  12  43 W14       30.28R WCI  22
WALDEN         FAIR      21   9  58 NW13      30.27R WCI   9
$$

COZ006>008-011-142300-
...WEST CENTRAL VALLEYS...

CITY           SKY/WX    TMP DP  RH WIND       PRES   REMARKS
GRAND JUNCTION   N/A     47  15  27 MISG      30.28S
MONTROSE       FAIR      41  20  43 CALM      30.27F
EAGLE          FAIR      38  13  35 SW6       30.29R
RIFLE          FAIR      41  12  30 NW20      30.29R
DELTA          FAIR      49  15  24 W10       30.24R
NUCLA          FAIR      46  14  27 N5        30.25R
$$

COZ017>023-064>068-142300-
...SOUTHWEST COLORADO...

CITY           SKY/WX    TMP DP  RH WIND       PRES   REMARKS
DURANGO        FAIR      43  24  47 CALM      30.14R
CORTEZ         FAIR      50  15  24 NW10      30.14R
PAGOSA SPRINGS FAIR      43  19  38 SW13      30.12S
TELLURIDE      FAIR      30  19  63 W16       30.22R WCI  18
WOLF CREEK PAS FAIR      23   3  42 W7        30.21R WCI  15
$$

COZ009-010-012-014-032>034-037-058>063-142300-
...CENTRAL COLORADO...

CITY           SKY/WX    TMP DP  RH WIND       PRES   REMARKS
ASPEN          FAIR      34  17  50 VRB6      30.22R WCI  29
BUENA VISTA    FAIR      34   7  31 NW22      30.15R WCI  22
COPPER MTN     NOT AVBL
BERTHOUD PASS  CLOUDY     5  -6  61 N20G41    30.11R WCI -15
COTTONWOOD PAS FAIR      32   9  37 CALM      30.15R
GUNNISON       FAIR      39   8  27 NW15      30.16R
KREMMLING      PTSUNNY   34  14  44 NW12      30.27R WCI  25
LEADVILLE      FAIR      22   4  46 N17G29    30.16R WCI   8
MONARCH PASS     N/A     16  12  86 NW13G22   30.25R WCI   2
SALIDA         FAIR      40  13  33 NW6       30.21R
SUNLIGHT       FAIR      16  12  86 W3        30.28R
WILKERSON PASS FAIR      16   9  73 N12G22    30.15R WCI   3
$$

COZ069>075-142300-
...SAN LUIS VALLEY/SANGRE DE CRISTO MOUNTAINS...

CITY           SKY/WX    TMP DP  RH WIND       PRES   REMARKS
ALAMOSA        FAIR      34  22  61 CALM      30.12S
DEL NORTE      FAIR      32  23  69 E8        30.12S WCI  25
LA VETA PASS   FLURRIES  23  19  86 SW13G21     N/A  WCI  11
SAGUACHE       PTSUNNY   34  25  69 SE8       30.14R WCI  27
$$

COZ035-036-038>040-142300-
...NORTHERN COLORADO FRONT RANGE...

CITY           SKY/WX    TMP DP  RH WIND       PRES   REMARKS
DENVER INTL AP PTSUNNY   35  20  54 NE13      30.21R WCI  26
DMNS CITY PARK NOT AVBL
AURORA         PTSUNNY   33  23  67 NE6       30.22R WCI  27
FRONT RANGE AP PTSUNNY   36  25  64 N15G25    30.22S
ERIE MUNI ARPT PTSUNNY   39  22  50 S5        30.26S
BOULDER MUN AP FAIR      39  23  52 SE6       30.20S
CENTENNIAL     CLOUDY    32  22  66 N9        30.21R WCI  24
BROOMFIELD     MOSUNNY   37  21  52 CALM      30.21R
FORT COLLINS   FAIR      41  14  33 N21       30.21R
LONGMONT       FAIR      44  21  40 S8        30.21S
$$

COZ041-046-047-076>085-087-088-142300-
...PIKES PEAK/PALMER DIVIDE AND SOUTHERN FOOTHILLS...

CITY           SKY/WX    TMP DP  RH WIND       PRES   REMARKS
COLO. SPRINGS  PTSUNNY   35  21  56 CALM      30.19R
A. F. ACADEMY  PTSUNNY   33  18  54 N14       30.18R WCI  23
SCHRIEVER AFB  CLOUDY    33  20  59 NE10      30.20R WCI  25
CHEYENNE MTN   FLURRIES  29  23  76 CALM      30.13R
ELLICOTT         N/A    N/A N/A N/A NE17G25   30.18R
FALCON         CLOUDY    31  20  63 N15       30.19R WCI  20
FORT CARSON    CLOUDY    34  26  71 SW5       30.19R WCI  30
LIMON          CLOUDY    29  23  78 N13       30.21R WCI  19
MONUMENT HILL  LGT SNOW  27  23  86 N10       30.20R WCI  17
CANON CITY     FAIR      41  27  56 SE6       30.17S
WALSENBURG     CLOUDY    36  23  60 SE5       30.18S
TRINIDAD       CLOUDY    35  24  64 CALM      30.19S
$$

COZ042>045-048>051-090-091-142300-
...NORTHEAST COLORADO...

CITY           SKY/WX    TMP DP  RH WIND       PRES   REMARKS
GREELEY ARPT   PTSUNNY   40  18  41 N23G32    30.21F
AKRON          CLOUDY    33  18  53 N22G36    30.18S WCI  21
BURLINGTON     PTSUNNY   39  18  42 NW18G28   30.17R
WRAY           CLOUDY    37  18  44 N22G32    30.19R
YUMA           CLOUDY    34  18  51 N24G32    30.19R WCI  21
STERLING       CLOUDY    36  21  55 N20G25    30.21R
HOLYOKE        FAIR      36  28  75 N16G24    30.20R
FORT MORGAN    FAIR      35  19  51 NW24G33   30.22S WCI  23
$$

COZ086-089-092>099-142300-
...SOUTHEAST COLORADO...

CITY           SKY/WX    TMP DP  RH WIND       PRES   REMARKS
PUEBLO         CLOUDY    42  24  49 NW5       30.19S
LA JUNTA       CLOUDY    40  27  59 NE21      30.20R
LAMAR          CLOUDY    36  31  82 NW7       30.20S
SPRINGFIELD      N/A     37  30  75 N15       30.18R
$$




USA.gov is the U.S. government's official web portal to all federal, state and local government web resources and services.